TimeMST,TemperatureF,Dew PointF,Humidity,Sea Level PressureIn,VisibilityMPH,Wind Direction,Wind SpeedMPH,Gust SpeedMPH,PrecipitationIn,Events,Conditions,WindDirDegrees,DateUTC
12:53 AM,50.0,30.9,48,29.86,10.0,SW,13.8,-,N/A,,Overcast,220,2012-11-30 07:53:00
1:53 AM,50.0,32.0,50,29.82,10.0,South,13.8,-,N/A,,Overcast,190,2012-11-30 08:53:00
2:53 AM,48.9,32.0,52,29.83,10.0,SSW,13.8,-,N/A,,Overcast,210,2012-11-30 09:53:00
3:53 AM,48.0,33.1,56,29.82,10.0,SSW,11.5,-,N/A,,Overcast,210,2012-11-30 10:53:00
4:53 AM,46.9,35.1,63,29.81,10.0,SW,8.1,-,0.00,Rain,Light Rain,230,2012-11-30 11:53:00
5:53 AM,50.0,33.1,52,29.81,10.0,SSW,15.0,-,0.00,,Overcast,210,2012-11-30 12:53:00
6:53 AM,48.0,34.0,58,29.80,10.0,South,12.7,-,0.00,Rain,Light Rain,190,2012-11-30 13:53:00
7:53 AM,48.0,37.0,66,29.81,10.0,South,15.0,-,0.00,Rain,Light Rain,180,2012-11-30 14:53:00
8:53 AM,46.9,39.0,74,29.83,9.0,SSW,8.1,-,0.04,Rain,Light Rain,210,2012-11-30 15:53:00
9:53 AM,46.0,39.9,79,29.82,10.0,NE,3.5,-,0.00,Rain,Light Rain,40,2012-11-30 16:53:00
10:53 AM,48.9,39.0,69,29.80,10.0,Variable,4.6,-,0.00,,Overcast,0,2012-11-30 17:53:00
11:53 AM,50.0,39.0,66,29.77,10.0,SSW,11.5,-,0.00,,Overcast,200,2012-11-30 18:53:00
12:53 PM,52.0,37.9,59,29.74,10.0,SSW,12.7,-,N/A,,Overcast,200,2012-11-30 19:53:00
1:53 PM,53.1,37.0,55,29.73,10.0,SSW,13.8,-,N/A,,Overcast,210,2012-11-30 20:53:00
2:53 PM,51.1,37.9,61,29.74,10.0,SW,15.0,20.7,0.01,Rain,Light Rain,220,2012-11-30 21:53:00
3:53 PM,46.9,43.0,86,29.79,8.0,NNW,6.9,-,0.05,Rain,Light Rain,330,2012-11-30 22:53:00
4:53 PM,46.9,43.0,86,29.80,8.0,NW,5.8,-,0.07,Rain,Light Rain,310,2012-11-30 23:53:00
5:53 PM,46.0,43.0,89,29.80,7.0,Calm,Calm,-,0.05,Rain,Light Rain,0,2012-12-01 00:53:00
6:53 PM,44.1,44.1,100,29.83,5.0,ENE,3.5,-,0.09,Rain,Rain,60,2012-12-01 01:53:00
7:53 PM,44.1,44.1,100,29.83,5.0,North,4.6,-,0.12,Rain,Rain,360,2012-12-01 02:53:00
8:14 PM,44.6,42.8,93,29.87,4.0,North,8.1,-,0.07,Rain,Rain,350,2012-12-01 03:14:00
8:32 PM,44.6,42.8,93,29.88,5.0,NW,12.7,17.3,0.13,Rain,Rain,310,2012-12-01 03:32:00
8:43 PM,42.8,41.0,93,29.88,5.0,WNW,6.9,-,0.16,Rain,Rain,300,2012-12-01 03:43:00
9:05 PM,42.8,39.2,87,29.88,8.0,NW,9.2,-,0.02,Rain,Rain,320,2012-12-01 04:05:00
9:53 PM,41.0,39.9,96,29.88,6.0,NW,4.6,-,0.06,Rain,Light Rain,320,2012-12-01 04:53:00
10:53 PM,41.0,39.9,96,29.88,10.0,SE,4.6,-,0.04,,Overcast,140,2012-12-01 05:53:00
11:53 PM,39.9,39.9,100,29.89,10.0,East,3.5,-,0.00,,Overcast,80,2012-12-01 06:53:00